UAE2460 OMDB-OEDF

Flight info

Callsign UAE2460
Flight time N/A
Altitude 26000
Route NABIX P699 ORMID M556 NARMI
Aircraft A343/H-SDE2E3FGHIJ4J5M1RWXY/LB1D1

Departure

Time 2026-04-30 22:52
Airport Dubai International Airport (OMDB)

Arrival

Time N/A
Airport King Fahd International Airport (OEDF)
Time Latitude Longitude Altitude Speed Heading
2026-04-30 22:40 25.24134 55.37566 25 ft 0 kts 301°
2026-04-30 22:44 25.24138 55.37558 31 ft 4 kts 301°
2026-04-30 22:45 25.24074 55.37637 31 ft 4 kts
2026-04-30 22:45 25.24036 55.37617 31 ft 1 kts 31°
2026-04-30 22:46 25.24039 55.37619 31 ft 0 kts 31°
2026-04-30 22:49 25.24215 55.37743 29 ft 25 kts 32°
2026-04-30 22:50 25.24789 55.38053 29 ft 19 kts 310°
2026-04-30 22:51 25.25028 55.37625 30 ft 75 kts 301°
2026-04-30 22:51 25.25966 55.35936 61 ft 174 kts 301°
2026-04-30 22:52 25.26639 55.34824 669 ft 175 kts 306°
2026-04-30 22:52 25.28056 55.32432 1708 ft 202 kts 299°
2026-04-30 22:53 25.29202 55.29449 3094 ft 222 kts 275°
2026-04-30 22:53 25.28232 55.26166 4355 ft 232 kts 245°
2026-04-30 22:53 25.27513 55.24556 5016 ft 233 kts 245°
2026-04-30 22:54 25.26105 55.21331 6417 ft 233 kts 246°
2026-04-30 22:55 25.24113 55.16430 8392 ft 234 kts 256°
2026-04-30 22:55 25.23527 55.12731 9171 ft 259 kts 262°
2026-04-30 22:56 25.22992 55.08667 10568 ft 278 kts 262°
2026-04-30 22:56 25.22042 55.01688 11846 ft 329 kts 261°
2026-04-30 22:57 25.21348 54.96634 13229 ft 340 kts 260°
2026-04-30 22:57 25.20763 54.91414 14604 ft 349 kts 265°
2026-04-30 22:58 25.20434 54.85990 15935 ft 359 kts 265°
2026-04-30 22:59 25.19867 54.77597 17986 ft 372 kts 266°
2026-04-30 22:59 25.20214 54.68905 19807 ft 383 kts 272°